This demonstration page uses our WeatherBlox Daily Observations layout. Learn more.

Left ArrowRight Arrow

39.01783, -85.05884

Hourly Observations for February 8, 2019

Temp ( °F °C ) Dew Point ( °F °C ) Humidity (%) Winds ( mph kmh ) Pressure ( in mb ) Visibility ( mi km ) Precip ( " mm )
12:39 am 00:39 Cloudy 34 1.1 26 -3.3 73 73 W 23 37 30.08 1019 10 16 0.00 0.00
12:52 am 00:52 Cloudy 34 1.1 26 -3.3 73 73 W 24 39 30.06 1018 10 16 0.00 0.00
1:52 am 01:52 Cloudy 32 0 25 -3.9 75 75 W 15 24 30.11 1020 10 16 0.00 0.00
2:52 am 02:52 Cloudy 29 -1.7 20 -6.7 69 69 WNW 18 30 30.14 1021 10 16 0.00 0.00
3:52 am 03:52 Cloudy 28 -2.2 20 -6.7 72 72 W 20 31 30.19 1022 10 16 0.00 0.00
4:52 am 04:52 Cloudy 26 -3.3 19 -7.2 75 75 W 20 31 30.24 1024 10 16 0.00 0.00
5:52 am 05:52 Cloudy 23 -5 13 -10.6 65 65 W 18 30 30.28 1025 10 16 0.00 0.00
6:18 am 06:18 Mostly Clear 22 -5.6 13 -10.6 68 68 W 18 30 30.36 1028 10 16 0.00 0.00
6:52 am 06:52 Mostly Clear 22 -5.6 13 -10.6 68 68 WNW 16 26 30.33 1027 10 16 0.00 0.00
7:42 am 07:42 Mostly Cloudy 21 -6.1 12 -11.1 68 68 W 16 26 30.43 1030 10 16 0.00 0.00
7:52 am 07:52 Mostly Cloudy 22 -5.6 12 -11.1 66 66 W 13 20 30.37 1029 10 16 0.00 0.00
8:52 am 08:52 Cloudy 21 -6.1 12 -11.1 68 68 W 15 24 30.42 1030 10 16 0.00 0.03
9:18 am 09:18 Partly Cloudy 21 -6.1 11 -11.7 65 65 W 18 30 30.49 1033 9 14 0.00 0.03
9:52 am 09:52 Partly Cloudy 22 -5.6 11 -11.7 63 63 W 22 35 30.45 1031 10 16 0.00 0.03
10:52 am 10:52 Partly Cloudy 23 -5 12 -11.1 63 63 W 18 30 30.48 1032 10 16 0.00 0.00
11:52 am 11:52 Partly Cloudy 24 -4.4 11 -11.7 57 57 W 17 28 30.52 1033 10 16 0.00 0.00
12:52 pm 12:52 Partly Cloudy 26 -3.3 13 -10.6 57 57 W 13 20 30.51 1033 10 16 0.00 0.00
1:52 pm 13:52 Partly Cloudy 27 -2.8 12 -11.1 53 53 W 14 22 30.51 1033 10 16 0.00 0.00
2:52 pm 14:52 Partly Cloudy 27 -2.8 12 -11.1 53 53 W 22 35 30.52 1034 10 16 0.00 0.00
3:52 pm 15:52 Mostly Cloudy 28 -2.2 13 -10.6 53 53 W 15 24 30.54 1034 10 16 0.00 0.00
4:52 pm 16:52 Partly Cloudy 27 -2.8 12 -11.1 53 53 W 15 24 30.55 1035 10 16 0.00 0.00
5:52 pm 17:52 Mostly Sunny 25 -3.9 11 -11.7 55 55 WNW 15 24 30.59 1036 10 16 0.00 0.00
6:52 pm 18:52 Mostly Clear 23 -5 11 -11.7 60 60 WNW 8 13 30.62 1037 10 16 0.00 0.00
7:52 pm 19:52 Mostly Clear 22 -5.6 11 -11.7 63 63 NW 12 19 30.66 1038 10 16 0.00 0.00
8:52 pm 20:52 Mostly Clear 21 -6.1 10 -12.2 62 62 WNW 12 19 30.69 1039 10 16 0.00 0.00
9:52 pm 21:52 Partly Cloudy 20 -6.7 10 -12.2 65 65 WNW 10 17 30.73 1041 10 16 0.00 0.00
10:52 pm 22:52 Mostly Clear 19 -7.2 9 -12.8 65 65 NW 9 15 30.73 1041 10 16 0.00 0.00
11:52 pm 23:52 Mostly Clear 18 -7.8 9 -12.8 68 68 NNW 10 17 30.74 1041 10 16 0.00 0.00

Powered by AerisWeather